Weather History for Dare County Gunnery Range, NC

Change the Weather History Date:

Wednesday, March 26, 2014

  Actual Average (KMQI) Record (KMQI)
Temperature  
Mean Temperature 37 °F -  
Max Temperature 44 °F 59 °F 73 °F (1975)
Min Temperature 28 °F 45 °F 18 °F (1984)
Degree Days  
Heating Degree Days 28    
Moisture  
Dew Point 23 °F    
Average Humidity 61    
Maximum Humidity 96    
Minimum Humidity 32    
Precipitation  
Precipitation 0.00 in - - ()
Sea Level Pressure  
Sea Level Pressure 30.08 in    
Wind  
Wind Speed 18 mph (NW)    
Max Wind Speed 28 mph    
Max Gust Speed 40 mph    
Visibility 12 miles    
Events Rain    
Averages and records for this station are not official NWS values.
T = Trace of Precipitation, MM = Missing Value Source: NWS Daily Summary

Daily Weather History Graph

Daily Weather History Graph

Search for Another Location

Airport:

Trip Planner

Search our weather history database for the weather conditions in past years. The results will help you decide how hot, cold, wet, or windy it might be!

Date:

Astronomy

Mar. 26, 2014 Rise Set
Actual Time 6:58 AM EDT 7:20 PM EDT
Civil Twilight 6:33 AM EDT 7:45 PM EDT
Nautical Twilight 6:03 AM EDT 8:15 PM EDT
Astronomical Twilight 5:32 AM EDT 8:46 PM EDT
Moon 3:56 AM EDT (3/26) 3:04 PM EDT (3/26)
Length of Visible Light 13h 12m
Length of Day
12h 21m
Waning Crescent, 22% of the Moon is Illuminated
Mar 26
Waning Crescent
Mar 30
New
Apr 7
First Quarter
Apr 15
Full
Apr 22
Last Quarter

Hourly Weather History & Observations

Time (EDT) Temp. Windchill Dew Point Humidity Pressure Visibility Wind Dir Wind Speed Gust Speed Precip Events Conditions
12:56 AM 36.1 °F 26.2 °F 32.7 °F 87% 29.80 in 12.0 mi NNW 17.3 mph 27.6 mph N/A   Mostly Cloudy
1:08 AM 35.6 °F 25.2 °F 32.0 °F 87% 29.81 in 12.0 mi NW 18.4 mph 29.9 mph N/A   Light Drizzle
1:14 AM 35.6 °F 24.5 °F 32.0 °F 87% 29.82 in 12.0 mi NW 20.7 mph 29.9 mph N/A Rain Light Rain
1:56 AM 35.4 °F 24.6 °F 31.1 °F 84% 29.83 in 12.0 mi NNW 19.6 mph 29.9 mph N/A Rain Light Rain Showers
2:04 AM 35.6 °F 24.0 °F 30.2 °F 81% 29.84 in 12.0 mi NNW 23.0 mph 31.1 mph N/A   Mostly Cloudy
2:56 AM 35.8 °F 25.7 °F 30.6 °F 81% 29.85 in 12.0 mi NW 17.3 mph 27.6 mph N/A   Mostly Cloudy
3:56 AM 35.6 °F 24.8 °F 28.6 °F 76% 29.88 in 12.0 mi NW 19.6 mph 28.8 mph N/A   Mostly Cloudy
4:56 AM 35.1 °F 24.5 °F 28.2 °F 76% 29.92 in 12.0 mi NW 18.4 mph 29.9 mph N/A   Mostly Cloudy
5:56 AM 34.2 °F 24.4 °F 28.6 °F 80% 29.97 in 12.0 mi NW 15.0 mph 21.9 mph N/A   Mostly Cloudy
6:56 AM 33.6 °F 22.6 °F 28.2 °F 81% 30.01 in 12.0 mi NW 18.4 mph 24.2 mph N/A   Mostly Cloudy
7:56 AM 34.2 °F 23.6 °F 26.8 °F 74% 30.04 in 12.0 mi NW 17.3 mph 26.5 mph N/A   Mostly Cloudy
8:01 AM 33.8 °F 22.5 °F 26.6 °F 75% 30.04 in 12.0 mi NW 19.6 mph 27.6 mph N/A   Scattered Clouds
8:56 AM 36.0 °F 24.4 °F 22.3 °F 58% 30.08 in 12.0 mi NNW 23.0 mph 38.0 mph N/A   Scattered Clouds
9:56 AM 37.4 °F 25.4 °F 18.5 °F 46% 30.10 in 12.0 mi NNW 27.6 mph 40.3 mph N/A   Scattered Clouds
10:56 AM 37.6 °F 26.1 °F 18.0 °F 45% 30.13 in 12.0 mi NW 25.3 mph 33.4 mph N/A   Partly Cloudy
11:56 AM 39.2 °F 30.2 °F 22.1 °F 50% 30.14 in 12.0 mi NNW 17.3 mph 26.5 mph N/A   Scattered Clouds
12:11 PM 39.2 °F 30.5 °F 19.4 °F 45% 30.14 in 12.0 mi WNW 16.1 mph 31.1 mph N/A   Scattered Clouds
12:56 PM 40.5 °F 30.0 °F 17.8 °F 40% 30.15 in 12.0 mi WNW 25.3 mph 31.1 mph N/A   Partly Cloudy
1:56 PM 41.4 °F 30.9 °F 15.3 °F 35% 30.15 in 12.0 mi NW 26.5 mph 33.4 mph N/A   Clear
2:56 PM 42.4 °F 33.3 °F 16.0 °F 34% 30.15 in 12.0 mi WNW 21.9 mph 28.8 mph N/A   Clear
3:40 PM 42.8 °F 36.2 °F 17.6 °F 36% 30.15 in 12.0 mi West 12.7 mph 25.3 mph N/A   Clear
3:56 PM 43.0 °F 34.2 °F 18.0 °F 37% 30.16 in 12.0 mi NW 20.7 mph 31.1 mph N/A   Clear
4:56 PM 43.5 °F 35.8 °F 15.8 °F 33% 30.16 in 12.0 mi WNW 17.3 mph 31.1 mph N/A   Partly Cloudy
5:56 PM 43.2 °F 35.6 °F 15.1 °F 32% 30.19 in 12.0 mi NW 16.1 mph 24.2 mph N/A   Clear
6:56 PM 41.2 °F 36.0 °F 17.1 °F 38% 30.22 in 12.0 mi NW 8.1 mph - N/A   Clear
7:56 PM 36.9 °F 31.4 °F 18.1 °F 47% 30.25 in 12.0 mi West 6.9 mph - N/A   Clear
8:56 PM 35.2 °F 30.3 °F 19.0 °F 52% 30.29 in 12.0 mi WNW 5.8 mph - N/A   Clear
9:56 PM 35.2 °F 30.3 °F 22.1 °F 59% 30.32 in 12.0 mi West 5.8 mph - N/A   Clear
10:56 PM 31.3 °F - 24.8 °F 77% 30.33 in 12.0 mi West 2.3 mph - N/A   Clear
11:56 PM 28.8 °F - 27.7 °F 96% 30.35 in 12.0 mi Calm Calm - N/A   Clear